Beatrice, NE

2:44 AM CST on February 25, 2018 (GMT -0600)
Beatrice Municipal

Weather History for KBIE - May, 2013

Change the Weather History Date:

Tuesday, May 21, 2013

  Actual Average Record
Temperature  
Mean Temperature 60 °F -  
Max Temperature 66 °F 78 °F 92 °F (1973)
Min Temperature 54 °F 53 °F 33 °F (1968)
Degree Days  
Heating Degree Days 5    
Growing Degree Days 10 (Base 50)    
Moisture  
Dew Point 49 °F    
Average Humidity 68    
Maximum Humidity 88    
Minimum Humidity 49    
Precipitation  
Precipitation 0.00 in - - ()
Sea Level Pressure  
Sea Level Pressure 29.73 in    
Wind  
Wind Speed 12 mph (WNW)    
Max Wind Speed 22 mph    
Max Gust Speed 29 mph    
Visibility 10 miles    
Events      
Averages and records for this station are not official NWS values.
T = Trace of Precipitation, MM = Missing Value Source: NWS Daily Summary

Daily Weather History Graph

Daily Weather History Graph

Search for Another Location

Airport or City:

Trip Planner

Search our weather history database for the weather conditions in past years. The results will help you decide how hot, cold, wet, or windy it might be!

Date:

Astronomy

May. 21, 2013 Rise Set
Actual Time 6:05 AM CDT 8:42 PM CDT
Civil Twilight 5:34 AM CDT 9:13 PM CDT
Nautical Twilight 4:55 AM CDT 9:52 PM CDT
Astronomical Twilight 4:11 AM CDT 10:37 PM CDT
Moon 4:56 PM CDT (5/21) 3:34 AM CDT (5/21)
Length of Visible Light 15h 39m
Length of Day
14h 36m
Waxing Gibbous, 84% of the Moon is Illuminated
May 21
Waxing Gibbous
May 24
Full
May 31
Last Quarter
Jun 8
New
Jun 16
First Quarter

Hourly Weather History & Observations

Time (CDT) Temp. Dew Point Humidity Pressure Visibility Wind Dir Wind Speed Gust Speed Precip Events Conditions
12:35 AM 60.8 °F 53.8 °F 78% 29.69 in 10.0 mi West 11.5 mph - N/A   Mostly Cloudy
12:55 AM 61.0 °F 54.5 °F 79% 29.70 in 10.0 mi West 11.5 mph - N/A   Overcast
1:15 AM 61.0 °F 55.0 °F 81% 29.70 in 10.0 mi West 13.8 mph 19.6 mph N/A   Overcast
1:35 AM 60.1 °F 55.0 °F 83% 29.70 in 10.0 mi WNW 12.7 mph - N/A   Scattered Clouds
1:55 AM 59.5 °F 55.2 °F 86% 29.70 in 10.0 mi West 9.2 mph - N/A   Scattered Clouds
2:15 AM 59.5 °F 55.0 °F 85% 29.70 in 10.0 mi West 10.4 mph - N/A   Mostly Cloudy
2:35 AM 59.0 °F 55.0 °F 87% 29.69 in 10.0 mi West 10.4 mph - N/A   Scattered Clouds
2:55 AM 58.5 °F 54.7 °F 87% 29.70 in 10.0 mi West 10.4 mph - N/A   Scattered Clouds
3:15 AM 58.3 °F 54.5 °F 87% 29.70 in 10.0 mi West 10.4 mph - N/A   Clear
3:35 AM 58.1 °F 54.1 °F 87% 29.70 in 10.0 mi West 8.1 mph - N/A   Clear
3:55 AM 57.4 °F 53.8 °F 88% 29.70 in 10.0 mi West 9.2 mph - N/A   Clear
4:15 AM 57.2 °F 53.6 °F 88% 29.70 in 10.0 mi West 8.1 mph - N/A   Clear
4:35 AM 56.8 °F 53.1 °F 87% 29.70 in 10.0 mi West 6.9 mph - N/A   Clear
4:55 AM 56.3 °F 52.9 °F 88% 29.71 in 10.0 mi WSW 9.2 mph - N/A   Clear
5:15 AM 56.3 °F 52.7 °F 88% 29.71 in 10.0 mi West 10.4 mph - N/A   Clear
5:35 AM 55.6 °F 52.2 °F 88% 29.71 in 10.0 mi West 9.2 mph - N/A   Clear
5:55 AM 55.2 °F 51.8 °F 88% 29.71 in 10.0 mi West 8.1 mph - N/A   Clear
6:15 AM 54.7 °F 51.1 °F 88% 29.73 in 10.0 mi WSW 10.4 mph - N/A   Clear
6:35 AM 54.9 °F 50.2 °F 84% 29.74 in 10.0 mi West 10.4 mph - N/A   Clear
6:55 AM 55.4 °F 50.2 °F 83% 29.75 in 10.0 mi West 9.2 mph - N/A   Clear
7:15 AM 55.9 °F 50.0 °F 80% 29.75 in 10.0 mi West 10.4 mph - N/A   Clear
7:35 AM 56.7 °F 49.6 °F 77% 29.76 in 10.0 mi West 11.5 mph 17.3 mph N/A   Clear
7:55 AM 57.4 °F 49.6 °F 75% 29.76 in 10.0 mi West 13.8 mph - N/A   Clear
8:15 AM 58.3 °F 49.5 °F 72% 29.75 in 10.0 mi West 16.1 mph 20.7 mph N/A   Clear
8:35 AM 59.4 °F 49.5 °F 70% 29.75 in 10.0 mi West 20.7 mph 25.3 mph N/A   Clear
8:55 AM 59.9 °F 48.9 °F 67% 29.74 in 10.0 mi WNW 18.4 mph 26.5 mph N/A   Clear
9:15 AM 61.0 °F 48.2 °F 63% 29.74 in 10.0 mi West 16.1 mph 26.5 mph N/A   Clear
9:35 AM 62.1 °F 47.3 °F 58% 29.74 in 10.0 mi WNW 21.9 mph 27.6 mph N/A   Clear
9:55 AM 62.4 °F 47.1 °F 57% 29.75 in 10.0 mi West 20.7 mph 25.3 mph N/A   Clear
10:15 AM 63.0 °F 47.1 °F 56% 29.74 in 10.0 mi WNW 19.6 mph 27.6 mph N/A   Clear
10:35 AM 63.3 °F 47.3 °F 56% 29.73 in 10.0 mi West 20.7 mph 28.8 mph N/A   Scattered Clouds
10:55 AM 63.7 °F 46.4 °F 53% 29.73 in 10.0 mi WNW 19.6 mph 28.8 mph N/A   Scattered Clouds
11:15 AM 63.1 °F 45.9 °F 53% 29.74 in 10.0 mi West 15.0 mph 26.5 mph N/A   Mostly Cloudy
11:35 AM 62.8 °F 45.7 °F 54% 29.74 in 10.0 mi WNW 16.1 mph 21.9 mph N/A   Overcast
11:55 AM 62.1 °F 45.5 °F 55% 29.75 in 10.0 mi West 16.1 mph 23.0 mph N/A   Overcast
12:15 PM 61.7 °F 44.1 °F 52% 29.76 in 10.0 mi West 13.8 mph 19.6 mph N/A   Overcast
12:35 PM 61.9 °F 44.6 °F 53% 29.76 in 10.0 mi West 10.4 mph 19.6 mph N/A   Overcast
12:55 PM 61.9 °F 44.6 °F 53% 29.76 in 10.0 mi West 13.8 mph 18.4 mph N/A   Overcast
1:15 PM 62.1 °F 45.3 °F 54% 29.76 in 10.0 mi West 13.8 mph - N/A   Overcast
1:35 PM 63.0 °F 45.0 °F 52% 29.75 in 10.0 mi West 15.0 mph - N/A   Overcast
1:55 PM 62.6 °F 45.0 °F 52% 29.76 in 10.0 mi West 16.1 mph 25.3 mph N/A   Overcast
2:15 PM 64.0 °F 45.0 °F 50% 29.75 in 10.0 mi West 13.8 mph 18.4 mph N/A   Overcast
2:35 PM 64.6 °F 45.0 °F 49% 29.75 in 10.0 mi West 12.7 mph 19.6 mph N/A   Overcast
2:55 PM 64.6 °F 45.3 °F 50% 29.74 in 10.0 mi West 15.0 mph 23.0 mph N/A   Overcast
3:15 PM 63.9 °F 45.5 °F 51% 29.75 in 10.0 mi West 15.0 mph 18.4 mph N/A   Overcast
3:35 PM 64.4 °F 45.7 °F 51% 29.76 in 10.0 mi WSW 13.8 mph - N/A   Overcast
3:55 PM 64.2 °F 45.7 °F 51% 29.74 in 10.0 mi West 12.7 mph - N/A   Overcast
4:15 PM 64.4 °F 46.0 °F 51% 29.73 in 10.0 mi WSW 10.4 mph - N/A   Overcast
4:35 PM 64.0 °F 46.9 °F 54% 29.73 in 10.0 mi WNW 8.1 mph - N/A   Overcast
4:55 PM 64.0 °F 46.6 °F 53% 29.73 in 10.0 mi WNW 10.4 mph - N/A   Overcast
5:15 PM 66.4 °F 47.8 °F 51% 29.73 in 10.0 mi WNW 12.7 mph - N/A   Overcast
5:35 PM 66.4 °F 48.0 °F 52% 29.73 in 10.0 mi WNW 17.3 mph 20.7 mph N/A   Overcast
5:55 PM 66.2 °F 48.6 °F 53% 29.72 in 10.0 mi WNW 18.4 mph 23.0 mph N/A   Scattered Clouds
6:15 PM 65.3 °F 48.0 °F 54% 29.72 in 10.0 mi WNW 16.1 mph 21.9 mph N/A   Clear
6:35 PM 64.8 °F 48.0 °F 55% 29.71 in 10.0 mi WNW 16.1 mph 24.2 mph N/A   Clear
6:55 PM 63.9 °F 47.5 °F 55% 29.72 in 10.0 mi WNW 15.0 mph 21.9 mph N/A   Clear
7:15 PM 64.4 °F 48.0 °F 55% 29.71 in 10.0 mi NW 19.6 mph 23.0 mph N/A   Clear
7:35 PM 62.6 °F 48.4 °F 60% 29.73 in 10.0 mi NW 15.0 mph - N/A   Scattered Clouds
7:55 PM 62.2 °F 48.6 °F 61% 29.74 in 10.0 mi WNW 12.7 mph - N/A   Overcast
8:15 PM 62.1 °F 48.6 °F 61% 29.75 in 10.0 mi WNW 13.8 mph - N/A   Overcast
8:35 PM 61.3 °F 49.1 °F 64% 29.75 in 10.0 mi NW 13.8 mph 19.6 mph N/A   Overcast
8:55 PM 60.4 °F 50.2 °F 69% 29.75 in 10.0 mi NW 10.4 mph - N/A   Overcast
9:15 PM 60.1 °F 50.4 °F 70% 29.75 in 10.0 mi NW 8.1 mph - N/A   Overcast
9:35 PM 59.9 °F 50.5 °F 71% 29.75 in 10.0 mi WNW 9.2 mph - N/A   Overcast
9:55 PM 59.9 °F 49.8 °F 69% 29.75 in 10.0 mi NW 17.3 mph - N/A   Overcast
10:15 PM 58.5 °F 49.5 °F 72% 29.76 in 10.0 mi NNW 11.5 mph - N/A   Overcast
10:35 PM 56.5 °F 50.2 °F 79% 29.76 in 10.0 mi NW 8.1 mph - N/A   Overcast
10:55 PM 56.1 °F 50.9 °F 83% 29.77 in 10.0 mi NW 8.1 mph - N/A   Overcast
11:15 PM 55.8 °F 51.1 °F 84% 29.77 in 10.0 mi NW 8.1 mph - N/A   Mostly Cloudy
11:35 PM 54.5 °F 50.5 °F 86% 29.77 in 10.0 mi NW 8.1 mph - N/A   Scattered Clouds
11:55 PM 54.3 °F 50.4 °F 86% 29.78 in 10.0 mi NNW 8.1 mph - N/A   Clear